Weather History for KDIK - November, 2011

Change the Weather History Date:

Monday, November 21, 2011

  Actual Average Record
Temperature  
Mean Temperature 22 °F 27 °F  
Max Temperature 40 °F 37 °F 66 °F (2012)
Min Temperature 3 °F 16 °F -13 °F (1929)
Degree Days  
Heating Degree Days 43 38  
Month to date heating degree days 743 698  
Since 1 July heating degree days 1505 1709  
Cooling Degree Days 0 0  
Month to date cooling degree days 0 0  
Year to date cooling degree days 358 419  
Moisture  
Dew Point 14 °F    
Average Humidity 68    
Maximum Humidity 88    
Minimum Humidity 47    
Precipitation  
Precipitation 0.00 in 0.01 in 0.20 in (1970)
Month to date precipitation 0.01 0.44  
Year to date precipitation 17.31 15.43  
Sea Level Pressure  
Sea Level Pressure 30.07 in    
Wind  
Wind Speed 9 mph (South)    
Max Wind Speed 17 mph    
Max Gust Speed 21 mph    
Visibility 10 miles    
Events      
T = Trace of Precipitation, MM = Missing Value Source: NWS Daily Summary

Daily Weather History Graph

Daily Weather History Graph

Search for Another Location

Airport or City:

Trip Planner

Search our weather history database for the weather conditions in past years. The results will help you decide how hot, cold, wet, or windy it might be!

Date:

Astronomy

Nov. 21, 2011 Rise Set
Actual Time 7:02 AM MST 4:11 PM MST
Civil Twilight 6:28 AM MST 4:45 PM MST
Nautical Twilight 5:51 AM MST 5:22 PM MST
Astronomical Twilight 5:15 AM MST 5:58 PM MST
Moon 2:30 AM MST (11/21) 1:45 PM MST (11/21)
Length of Visible Light 10h 16m
Length of Day
9h 09m
Waning Crescent, 17% of the Moon is Illuminated
Nov 21
Waning Crescent
Nov 24
New
Dec 2
First Quarter
Dec 10
Full
Dec 17
Last Quarter

Hourly Weather History & Observations

Time (MST) Temp. Windchill Dew Point Humidity Pressure Visibility Wind Dir Wind Speed Gust Speed Precip Events Conditions
12:56 AM 7.0 °F -3.3 °F 3.9 °F 87% 30.12 in 10.0 mi South 5.8 mph - N/A   Clear
1:56 AM 10.9 °F 2.9 °F 6.1 °F 81% 30.12 in 10.0 mi SSW 4.6 mph - N/A   Clear
2:56 AM 12.9 °F - 6.1 °F 74% 30.12 in 10.0 mi Calm Calm - N/A   Clear
3:56 AM 5.0 °F -2.1 °F 1.0 °F 84% 30.14 in 10.0 mi South 3.5 mph - N/A   Clear
4:56 AM 10.0 °F - 6.1 °F 84% 30.14 in 10.0 mi Calm Calm - N/A   Clear
5:56 AM 7.0 °F - 1.9 °F 80% 30.13 in 10.0 mi Calm Calm - N/A   Clear
6:56 AM 6.1 °F -2.8 °F 1.0 °F 80% 30.15 in 10.0 mi South 4.6 mph - N/A   Clear
7:56 AM 12.9 °F 5.2 °F 8.1 °F 81% 30.14 in 10.0 mi SE 4.6 mph - N/A   Clear
8:56 AM 19.9 °F 13.4 °F 14.0 °F 78% 30.12 in 10.0 mi SE 4.6 mph - N/A   Clear
9:56 AM 28.9 °F 19.8 °F 15.1 °F 56% 30.09 in 10.0 mi SSE 10.4 mph - N/A   Clear
11:56 AM 36.0 °F 28.5 °F 21.9 °F 57% 30.05 in 10.0 mi South 10.4 mph - N/A   Clear
12:56 PM 37.9 °F 30.0 °F 25.0 °F 60% 30.03 in 10.0 mi SSE 12.7 mph - N/A   Clear
2:56 PM 37.9 °F 30.5 °F 26.1 °F 62% 29.98 in 10.0 mi SSE 11.5 mph - N/A   Clear
4:56 PM 28.9 °F 17.3 °F 23.0 °F 78% 29.99 in 10.0 mi South 16.1 mph - N/A   Clear
5:56 PM 27.0 °F 15.6 °F 21.9 °F 81% 30.01 in 10.0 mi South 13.8 mph - N/A   Clear
7:56 PM 26.1 °F 14.5 °F 21.9 °F 84% 29.98 in 10.0 mi South 13.8 mph - N/A   Clear
8:56 PM 25.0 °F 12.6 °F 21.0 °F 85% 29.98 in 10.0 mi South 15.0 mph - N/A   Clear
9:56 PM 25.0 °F 18.1 °F 21.0 °F 85% 29.98 in 10.0 mi South 5.8 mph - N/A   Clear
11:56 PM 21.9 °F 12.5 °F 19.0 °F 89% 29.98 in 10.0 mi SSW 8.1 mph - N/A   Clear